TimeEST,TemperatureF,Dew PointF,Humidity,Sea Level PressureIn,VisibilityMPH,Wind Direction,Wind SpeedMPH,Gust SpeedMPH,PrecipitationIn,Events,Conditions,WindDirDegrees,DateUTC
12:16 AM,33.8,23.0,65,30.24,10.0,SW,6.9,-,N/A,,Overcast,230,2012-11-13 05:16:00
12:36 AM,33.8,23.0,65,30.24,10.0,SW,6.9,-,N/A,,Overcast,220,2012-11-13 05:36:00
12:56 AM,33.8,23.0,65,30.24,10.0,SW,5.8,-,N/A,,Overcast,230,2012-11-13 05:56:00
1:16 AM,33.8,23.0,65,30.24,10.0,SW,5.8,-,N/A,,Overcast,230,2012-11-13 06:16:00
1:36 AM,33.8,24.8,70,30.25,10.0,WSW,5.8,-,N/A,,Overcast,240,2012-11-13 06:36:00
1:56 AM,33.8,24.8,70,30.26,10.0,West,6.9,-,N/A,Snow,Light Snow,280,2012-11-13 06:56:00
2:16 AM,32.0,26.6,80,30.27,10.0,West,5.8,-,N/A,,Overcast,260,2012-11-13 07:16:00
2:36 AM,32.0,26.6,80,30.27,10.0,WSW,4.6,-,N/A,,Overcast,250,2012-11-13 07:36:00
2:56 AM,32.0,26.6,80,30.28,10.0,West,3.5,-,N/A,,Overcast,260,2012-11-13 07:56:00
3:16 AM,32.0,24.8,75,30.29,10.0,West,9.2,-,N/A,,Overcast,280,2012-11-13 08:16:00
3:36 AM,32.0,23.0,69,30.29,10.0,West,4.6,-,N/A,,Overcast,280,2012-11-13 08:36:00
3:56 AM,32.0,23.0,69,30.29,10.0,West,4.6,-,N/A,,Overcast,270,2012-11-13 08:56:00
4:16 AM,32.0,23.0,69,30.30,10.0,West,3.5,-,N/A,,Overcast,280,2012-11-13 09:16:00
4:36 AM,32.0,21.2,64,30.30,10.0,West,4.6,-,N/A,,Overcast,260,2012-11-13 09:36:00
4:56 AM,32.0,23.0,69,30.31,10.0,West,5.8,-,N/A,,Overcast,280,2012-11-13 09:56:00
5:16 AM,32.0,21.2,64,30.32,10.0,West,6.9,-,N/A,,Overcast,280,2012-11-13 10:16:00
5:36 AM,32.0,21.2,64,30.33,10.0,WNW,3.5,-,N/A,,Overcast,290,2012-11-13 10:36:00
5:56 AM,32.0,21.2,64,30.33,10.0,WNW,5.8,-,N/A,,Overcast,300,2012-11-13 10:56:00
6:16 AM,32.0,21.2,64,30.34,10.0,WNW,5.8,-,N/A,,Overcast,300,2012-11-13 11:16:00
6:36 AM,32.0,23.0,69,30.36,10.0,Calm,Calm,-,N/A,,Overcast,0,2012-11-13 11:36:00
6:56 AM,32.0,21.2,64,30.37,10.0,West,3.5,-,N/A,,Overcast,280,2012-11-13 11:56:00
7:16 AM,32.0,21.2,64,30.38,10.0,West,4.6,-,N/A,,Overcast,280,2012-11-13 12:16:00
7:36 AM,30.2,19.4,64,30.39,10.0,WNW,5.8,-,N/A,,Overcast,290,2012-11-13 12:36:00
7:56 AM,30.2,19.4,64,30.40,10.0,WNW,5.8,-,N/A,,Overcast,300,2012-11-13 12:56:00
8:16 AM,30.2,17.6,60,30.41,10.0,West,4.6,-,N/A,,Scattered Clouds,280,2012-11-13 13:16:00
8:36 AM,30.2,17.6,60,30.42,10.0,West,3.5,-,N/A,,Clear,260,2012-11-13 13:36:00
8:56 AM,32.0,19.4,60,30.43,10.0,West,5.8,-,N/A,,Clear,280,2012-11-13 13:56:00
9:16 AM,32.0,17.6,55,30.43,10.0,WNW,4.6,-,N/A,,Scattered Clouds,290,2012-11-13 14:16:00
9:36 AM,33.8,15.8,48,30.43,10.0,WNW,6.9,-,N/A,,Mostly Cloudy,290,2012-11-13 14:36:00
9:56 AM,32.0,15.8,51,30.44,10.0,West,9.2,-,N/A,,Overcast,280,2012-11-13 14:56:00
10:16 AM,32.0,15.8,51,30.45,10.0,WNW,13.8,18.4,N/A,,Overcast,290,2012-11-13 15:16:00
10:36 AM,32.0,15.8,51,30.45,10.0,West,8.1,-,N/A,,Overcast,280,2012-11-13 15:36:00
10:56 AM,32.0,15.8,51,30.46,10.0,WNW,9.2,-,N/A,,Overcast,290,2012-11-13 15:56:00
11:16 AM,33.8,17.6,52,30.46,10.0,NW,10.4,-,N/A,,Overcast,310,2012-11-13 16:16:00
11:36 AM,33.8,15.8,48,30.46,10.0,WNW,5.8,-,N/A,,Overcast,290,2012-11-13 16:36:00
11:56 AM,33.8,17.6,52,30.45,10.0,West,5.8,-,N/A,,Overcast,270,2012-11-13 16:56:00
12:16 PM,33.8,17.6,52,30.44,10.0,WNW,6.9,-,N/A,,Overcast,300,2012-11-13 17:16:00
12:36 PM,33.8,17.6,52,30.44,10.0,WSW,5.8,-,N/A,,Overcast,250,2012-11-13 17:36:00
12:56 PM,33.8,19.4,56,30.44,10.0,WNW,5.8,-,N/A,,Overcast,290,2012-11-13 17:56:00
1:16 PM,33.8,17.6,52,30.44,10.0,WNW,8.1,-,N/A,,Overcast,300,2012-11-13 18:16:00
1:36 PM,33.8,17.6,52,30.44,10.0,WNW,6.9,-,N/A,,Overcast,300,2012-11-13 18:36:00
1:56 PM,35.6,17.6,48,30.44,10.0,SW,6.9,-,N/A,,Overcast,220,2012-11-13 18:56:00
2:16 PM,33.8,19.4,56,30.45,10.0,West,8.1,-,N/A,,Overcast,270,2012-11-13 19:16:00
2:36 PM,33.8,17.6,52,30.45,10.0,WSW,5.8,-,N/A,,Scattered Clouds,240,2012-11-13 19:36:00
2:56 PM,35.6,17.6,48,30.45,10.0,SW,5.8,-,N/A,,Mostly Cloudy,230,2012-11-13 19:56:00
3:16 PM,35.6,17.6,48,30.45,10.0,SW,3.5,-,N/A,,Overcast,220,2012-11-13 20:16:00
3:36 PM,33.8,17.6,52,30.46,10.0,West,6.9,-,N/A,,Overcast,270,2012-11-13 20:36:00
3:56 PM,33.8,17.6,52,30.47,10.0,WSW,4.6,-,N/A,,Overcast,240,2012-11-13 20:56:00
4:16 PM,33.8,17.6,52,30.47,10.0,West,3.5,-,N/A,,Overcast,270,2012-11-13 21:16:00
4:36 PM,33.8,17.6,52,30.48,10.0,SW,4.6,-,N/A,,Overcast,220,2012-11-13 21:36:00
4:56 PM,33.8,17.6,52,30.47,10.0,SW,3.5,-,N/A,,Overcast,220,2012-11-13 21:56:00
5:16 PM,32.0,17.6,55,30.48,10.0,Calm,Calm,-,N/A,,Overcast,0,2012-11-13 22:16:00
5:36 PM,32.0,17.6,55,30.48,10.0,Calm,Calm,-,N/A,,Overcast,0,2012-11-13 22:36:00
5:56 PM,32.0,17.6,55,30.49,10.0,Calm,Calm,-,N/A,,Overcast,0,2012-11-13 22:56:00
6:16 PM,32.0,17.6,55,30.50,10.0,Calm,Calm,-,N/A,,Overcast,0,2012-11-13 23:16:00
6:36 PM,32.0,17.6,55,30.50,10.0,Calm,Calm,-,N/A,,Overcast,0,2012-11-13 23:36:00
6:56 PM,32.0,19.4,60,30.50,10.0,Calm,Calm,-,N/A,,Overcast,0,2012-11-13 23:56:00
7:16 PM,32.0,17.6,55,30.51,10.0,Calm,Calm,-,N/A,,Overcast,0,2012-11-14 00:16:00
7:36 PM,30.2,17.6,60,30.51,10.0,Calm,Calm,-,N/A,,Scattered Clouds,0,2012-11-14 00:36:00
7:56 PM,30.2,17.6,60,30.51,10.0,Calm,Calm,-,N/A,,Mostly Cloudy,0,2012-11-14 00:56:00
8:16 PM,28.4,17.6,64,30.52,10.0,Calm,Calm,-,N/A,,Overcast,0,2012-11-14 01:16:00
8:36 PM,28.4,17.6,64,30.52,10.0,Calm,Calm,-,N/A,,Overcast,0,2012-11-14 01:36:00
8:56 PM,26.6,21.2,80,30.53,10.0,Calm,Calm,-,N/A,,Overcast,0,2012-11-14 01:56:00
9:16 PM,26.6,21.2,80,30.53,10.0,Calm,Calm,-,N/A,,Overcast,0,2012-11-14 02:16:00
9:36 PM,24.8,21.2,86,30.54,10.0,Calm,Calm,-,N/A,,Mostly Cloudy,0,2012-11-14 02:36:00
9:56 PM,24.8,19.4,80,30.54,10.0,Calm,Calm,-,N/A,,Scattered Clouds,0,2012-11-14 02:56:00
10:16 PM,24.8,21.2,86,30.54,10.0,Calm,Calm,-,N/A,,Scattered Clouds,0,2012-11-14 03:16:00
10:36 PM,24.8,21.2,86,30.55,10.0,Calm,Calm,-,N/A,,Mostly Cloudy,0,2012-11-14 03:36:00
10:56 PM,24.8,21.2,86,30.55,10.0,Calm,Calm,-,N/A,,Overcast,0,2012-11-14 03:56:00
11:16 PM,24.8,21.2,86,30.55,10.0,Calm,Calm,-,N/A,,Overcast,0,2012-11-14 04:16:00
11:36 PM,23.0,19.4,86,30.55,10.0,Calm,Calm,-,N/A,,Mostly Cloudy,0,2012-11-14 04:36:00
11:56 PM,21.2,19.4,93,30.55,10.0,Calm,Calm,-,N/A,,Scattered Clouds,0,2012-11-14 04:56:00